Location: Bothwell
(41.7170°N, 112.2589°W)
Time: 01:49:21
(UTC+00:00)

Tiros 1 - Pass Details

Date: 14 May 2026
Orbit: 618 x 649 km, 48.4° (Epoch: 6 June)

Event Time Altitude Azimuth Distance (km) Brightness Sun altitude
Rises 13:40:39 0° 294° (WNW) 2,890 10.0 15.1°
Reaches altitude 10° 13:43:03 10° 287° (WNW) 1,980 9.2 15.5°
Maximum altitude 13:47:18 40° 219° (SW) 911 7.8 16.3°
Drops below altitude 10° 13:51:32 10° 149° (SSE) 1,971 10.0 17.1°
Sets 13:53:56 0° 142° (SE) 2,875 10.9 17.5°
